User: anonymous   Login
Location: Pleiades Observatory
(40.1297°N, 91.5238°W)
Time: 01:24:36
(UTC-05:00)
Language:

Cosmos 1842 Rocket - Orbit

View from above orbital plane
View from above orbital plane
View from above satellite
View from above satellite

Ground track
Ground track

The orbit data is extracted from the following two-line orbital elements,

1 17912U 87038B   17264.65351364  .00000088  00000-0  78859-5 0  9997
2 17912  82.5026 319.8662 0018709 273.2324  86.6750 14.82944786642027
Epoch (UTC): 21 September 2017 15:41:03
Eccentricity: 0.0018709
inclination: 82.5026°
perigee height: 607 km
apogee height: 633 km
right ascension of ascending node: 319.8662°
argument of perigee: 273.2324°
revolutions per day: 14.82944786
mean anomaly at epoch: 86.6750°
orbit number at epoch: 64202

The dashed part of the orbit path shows where the satellite is in the earth's shadow,  

DLR